User: anonymous   Login
Location: Mentone
(34.5413°N, 85.5351°W)
Time: 03:17:03
(UTC-06:00)
Language:

Transit 2A Rocket - Orbit

View from above orbital plane
View from above orbital plane
View from above satellite
View from above satellite

Ground track
Ground track

The orbit data is extracted from the following two-line orbital elements,

1    47U 60007C   17327.62053623 -.00000024 +00000-0 +19829-4 0  9991
2    47 066.6640 139.7097 0235291 268.6329 088.7812 14.41954122999627
Epoch (UTC): 23 November 2017 14:53:34
Eccentricity: 0.0235291
inclination: 66.6640°
perigee height: 584 km
apogee height: 920 km
right ascension of ascending node: 139.7097°
argument of perigee: 268.6329°
revolutions per day: 14.41954122
mean anomaly at epoch: 88.7812°
orbit number at epoch: 99962

The dashed part of the orbit path shows where the satellite is in the earth's shadow,  

DLR